Regional Weather Roundup
Issued by NWS

Home | Current Version | Previous Version | Graphics & Text | Print | Product List | Glossary On
Versions: 1 2 3 4 5 6 7 8 9 10 11 12 13 14 15 16 17 18 19 20 21 22 23 24 25 26 27 28 29 30 31 32 33 34 35 36 37 38 39 40 41 42 43 44 45 46 47 48 49 50
000
ASUS43 KLOT 021413
RWRIL

ILLINOIS REGIONAL WEATHER ROUNDUP
NATIONAL WEATHER SERVICE CHICAGO/ROMEOVILLE IL
900 AM CDT TUE JUN 02 2015

NOTE: "FAIR" INDICATES FEW OR NO CLOUDS BELOW 12,000 FEET WITH NO
SIGNIFICANT WEATHER AND/OR OBSTRUCTIONS TO VISIBILITY.

* THESE STATIONS ARE NOT UNDER NWS QUALITY CONTROL. THEY ALSO MAY NOT
  REPORT WEATHER SUCH AS PRECIPITATION OR FOG.

ILZ001-002-007-009-015-016-024-021500-
NORTHWEST ILLINOIS

CITY           SKY/WX    TMP DP  RH WIND       PRES   REMARKS
MOLINE         SUNNY     60  47  61 SE5       30.18F
STERLING*      SUNNY     59  45  58 CALM      30.20F
SAVANNA*       SUNNY     59  42  53 SE3       30.20F
$$

ILZ003-004-008-010-011-017-018-021500-
NORTH CENTRAL ILLINOIS

CITY           SKY/WX    TMP DP  RH WIND       PRES   REMARKS
ROCKFORD       MOSUNNY   58  43  57 CALM      30.22F
FREEPORT*      SUNNY     56  41  57 CALM      30.22F
ROCHELLE*      SUNNY     56  44  62 CALM      30.22F
DE KALB*       SUNNY     56  46  69 CALM      30.21F
PERU*          SUNNY     57  45  63 E3        30.21F
$$

ILZ005-006-012>014-019>023-021500-
NORTHEAST ILLINOIS

CITY           SKY/WX    TMP DP  RH WIND       PRES   REMARKS
CHICAGO-OHARE  MOSUNNY   56  45  66 CALM      30.21S
CHICAGO-MIDWAY MOSUNNY   60  49  66 CALM      30.21S
AURORA         SUNNY     59  46  62 CALM      30.22S
LANSING*       SUNNY     60  48  64 SE6       30.21F
JOLIET*        SUNNY     61  51  70 CALM      30.22R
WAUKEGAN       SUNNY     55  45  68 NE3       30.22R
DUPAGE AIRPORT SUNNY     57  47  69 S3        30.21S
KANKAKEE*      SUNNY     59  50  73 E8        30.22R
WHEELING       SUNNY     56  45  66 CALM      30.24R
MORRIS*        SUNNY     58  49  70 CALM      30.19S
ROMEOVILLE*    SUNNY     59  50  71 S5        30.22S
NORTHERLY ISL    N/A     52  46  80 NE5         N/A
$$

LMZ740>746-021500-
SOUTHERN LAKE MICHIGAN

STATION/POSITION SKY/WX   TEMP    WIND        PRES    VSBY  WAVE
                          AIR SEA DIR/SP/G                  HT/PER
                          (F)     (DEG/KT/KT) (MB)    (MI)  (FT/S)
SOUTHERN BUOY              43 38  100/  6/  6 1024.0S         1
HARRISON CRIB              48     350/  4/  6   N/A
BURNHAM HARBOR             52      30/  4/  5   N/A
CALUMET HARBOR             53      50/  2/  3   N/A
BURNS HARBOR               58     180/  4/  6 1023.7R
MICHIGAN CITY              56     120/  4/  6   N/A
MICHIGAN CITY 6N           56 55  130/  2/  2   N/A           1/ 4
ST. JOSEPH                 54 55  300/  2/  2   N/A           1
$$

ILZ025>027-034>036-040-047-049-050-058-095>099-021500-
WEST-CENTRAL ILLINOIS

CITY           SKY/WX    TMP DP  RH WIND       PRES   REMARKS
QUINCY         CLOUDY    62  56  80 E8        30.16S
GALESBURG*     SUNNY     60  51  72 SE3       30.19F
MACOMB*        SUNNY     58  53  82 E8        30.21F
JACKSONVILLE*  CLOUDY    63  53  71 E6        30.17S
PITTSFIELD*    SUNNY     64  56  75 E3        30.18S
$$

ILZ028>032-037-038-041>044-048-051>054-059>061-021500-
CENTRAL ILLINOIS

CITY           SKY/WX    TMP DP  RH WIND       PRES   REMARKS
PONTIAC        SUNNY     59  53  80 SE6       30.22R
BLOOMINGTON    SUNNY     62  52  70 E8        30.21R
DECATUR        SUNNY     61  51  70 NE9       30.18R
PEORIA         PTSUNNY   62  49  62 S3        30.20R
LACON*         SUNNY     57  46  67 CALM      30.19F
LINCOLN*       MOSUNNY   62  51  69 E7        30.17S
SPRINGFIELD    SUNNY     63  50  62 E8        30.18R
TAYLORVILLE    SUNNY     59  50  72 E8        30.16F
$$

ILZ033-039-045-046-055>057-062-063-021500-
EAST-CENTRAL ILLINOIS

CITY           SKY/WX    TMP DP  RH WIND       PRES   REMARKS
CHAMPAIGN      SUNNY     60  50  69 NE13      30.18S
DANVILLE*      SUNNY     58  50  75 E6        30.17S
RANTOUL*       SUNNY     61  52  71 E8        30.19S
MATTOON        CLOUDY    55  50  83 E7        30.17S
PARIS*         SUNNY     58  52  79 E8        30.19S
$$

ILZ079-100>102-021500-
SOUTHWEST ILLINOIS

CITY           SKY/WX    TMP DP  RH WIND       PRES   REMARKS
ALTON          PTSUNNY   64  59  82 NE6       30.16R
BELLEVILLE     PTSUNNY   62  57  83 NE6       30.14S
CAHOKIA*       CLOUDY    63  53  70 NE7       30.15R
SPARTA*        CLOUDY    58  56  95 NE5       30.16R
$$

ILZ064>066-069>071-074>076-080>082-084>086-088>090-092>094-021500-
SOUTH-CENTRAL ILLINOIS

CITY           SKY/WX    TMP DP  RH WIND       PRES   REMARKS
CARBONDALE     CLOUDY    60  56  86 NE6       30.14S
CAIRO*         CLOUDY    61  57  88 N6        30.13S
EFFINGHAM*     CLOUDY    57  51  80 NE5       30.18S
MARION         CLOUDY    61  57  88 MISG      30.15R FOG
MT. VERNON     CLOUDY    57  52  82 CALM      30.16S
CENTRALIA*     CLOUDY    60  53  75 E7        30.15S
SALEM*         CLOUDY    60  54  80 NE5       30.16S
$$

ILZ067-068-072-073-078-083-087-091-021500-
SOUTHEAST ILLINOIS

CITY           SKY/WX    TMP DP  RH WIND       PRES   REMARKS
LAWRENCEVILLE  CLOUDY    57  51  80 N5        30.17R
FLORA*         CLOUDY    57  52  82 NE6       30.17R
FAIRFIELD*     CLOUDY    59  54  82 NE6       30.15R
HARRISBURG*    CLOUDY    59  58  99 NE3       30.15S
ROBINSON*      CLOUDY    56  51  84 NE6       30.18R
CARMI*         CLOUDY    57  54  88 N7        30.14S HAZE
$$

ABBREVIATIONS USED IN REMARKS
   TC - TEMPERATURE IN CELSIUS
  WCI - WIND CHILL INDEX
   HX - HEAT INDEX
  VSB - VISIBILITY
$$



USA.gov is the U.S. government's official web portal to all federal, state and local government web resources and services.